Stations météo

réclame
Mon MeteoGroup
Reus, Espagne (8175): Température de l'air & dewpoint: 18.02.2018 01:00:00 - 24.02.2018 01:00:00 (CET)Reus, Espagne (8175): Vitesse du vent: 18.02.2018 01:00:00 - 24.02.2018 01:00:00 (CET)Reus, Espagne (8175): Direction du vent: 18.02.2018 01:00:00 - 24.02.2018 01:00:00 (CET)Reus, Espagne (8175): reduced air pressure: 18.02.2018 01:00:00 - 24.02.2018 01:00:00 (CET)Reus, Espagne (8175): visibility: 18.02.2018 01:00:00 - 24.02.2018 01:00:00 (CET)
Date & Time tt [°C] td [°C] ff [km/h] ff [knt] dd ppp [hPa] vv [km]
24.02.2018 01:00:00 1,4 -2,3 8 4 NNE 1008,0 14
24.02.2018 00:00:00 1,8 -2,0 8 4 NNE 1008,1 9
23.02.2018 23:00:00 2,9 -1,6 9 5 N 1008,2 13
23.02.2018 22:00:00 3,5 -0,8 9 5 WNW 1008,1 12
23.02.2018 21:00:00 4,9 -0,8 4 2 WNW 1007,9 12
23.02.2018 20:00:00 6,1 -0,4 4 2 W 1007,5 15
23.02.2018 19:00:00 7,0 -0,5 8 4 SW 1007,1 27
23.02.2018 18:00:00 9,5 -1,1 22 12 SW 1006,2 30
23.02.2018 17:00:00 11,9 -4,6 22 12 WSW 1005,6 29
23.02.2018 16:00:00 12,7 -5,1 15 8 WSW 1005,4 30
23.02.2018 15:00:00 12,5 -5,0 22 12 WSW 1005,7 27
23.02.2018 14:00:00 11,9 -5,2 21 11 WSW 1006,0 30
23.02.2018 13:00:00 - - - - - - -
23.02.2018 12:00:00 9,3 -5,9 24 13 W 1007,4 30
23.02.2018 11:00:00 8,7 -5,0 26 14 W 1007,5 18
23.02.2018 10:00:00 6,2 -4,0 24 13 W 1007,7 18
23.02.2018 09:00:00 3,1 -3,2 2 1 N 1007,7 12
23.02.2018 08:00:00 -0,9 -4,4 0 0 N 1007,4 15
23.02.2018 07:00:00 -0,5 -4,1 4 2 NNW 1007,2 15
23.02.2018 06:00:00 -1,0 -4,4 4 2 ENE 1006,9 15
23.02.2018 05:00:00 0,7 -4,6 4 2 NNE 1006,8 22
23.02.2018 04:00:00 3,6 -5,2 15 8 WNW 1006,9 29
23.02.2018 03:00:00 4,7 -6,0 13 7 NW 1007,3 30
23.02.2018 02:00:00 4,9 -6,5 18 10 WNW 1007,2 30
23.02.2018 01:00:00 5,2 -6,8 16 9 WNW 1007,2 30
23.02.2018 00:00:00 5,1 -2,1 13 7 W 1007,2 19
22.02.2018 23:00:00 - - - - - - -
22.02.2018 22:00:00 5,9 1,1 9 5 N 1006,9 16
22.02.2018 21:00:00 5,9 0,7 11 6 N 1006,7 13
22.02.2018 20:00:00 5,1 0,3 9 5 N 1006,5 10
22.02.2018 19:00:00 7,3 0,2 0 0 N 1006,1 19
22.02.2018 18:00:00 9,2 0,3 8 4 E 1005,3 12
22.02.2018 17:00:00 10,4 -1,9 15 8 ESE 1005,1 29
22.02.2018 16:00:00 11,0 -2,0 15 8 SE 1004,9 21
22.02.2018 15:00:00 11,9 -1,7 18 10 SSE 1004,9 25
22.02.2018 14:00:00 11,5 -3,5 9 5 W 1005,3 28
22.02.2018 13:00:00 10,7 -2,6 22 12 W 1006,0 23
22.02.2018 12:00:00 9,8 -3,6 26 14 W 1006,4 21
22.02.2018 11:00:00 8,7 -3,3 22 12 W 1006,5 12
22.02.2018 10:00:00 6,7 -3,4 22 12 WNW 1006,6 19
22.02.2018 09:00:00 5,0 -3,6 29 16 WNW 1006,6 18
22.02.2018 08:00:00 4,0 -3,5 24 13 W 1006,6 18
22.02.2018 07:00:00 4,1 -3,0 26 14 WNW 1006,5 30
22.02.2018 06:00:00 4,6 -3,0 41 22 WNW 1006,5 24
22.02.2018 05:00:00 4,5 -3,1 34 18 WNW 1006,4 30
22.02.2018 04:00:00 4,4 -3,0 22 12 WNW 1007,0 30
22.02.2018 03:00:00 4,5 -3,4 15 8 NW 1007,6 30
22.02.2018 02:00:00 5,1 -4,1 18 10 W 1007,9 30
22.02.2018 01:00:00 5,3 -3,8 18 10 W 1008,3 30
22.02.2018 00:00:00 5,5 -1,1 18 10 W 1008,5 30
21.02.2018 23:00:00 6,0 4,1 15 8 WSW 1008,4 30
21.02.2018 22:00:00 6,9 5,0 8 4 W 1008,7 19
21.02.2018 21:00:00 8,0 5,1 9 5 W 1008,6 27
21.02.2018 20:00:00 8,6 5,1 5 3 WSW 1008,3 30
21.02.2018 19:00:00 8,5 4,4 5 3 S 1007,9 30
21.02.2018 18:00:00 10,6 3,8 11 6 SSW 1007,3 30
21.02.2018 17:00:00 12,5 4,3 18 10 SW 1006,4 30
21.02.2018 16:00:00 13,7 4,6 13 7 S 1006,4 30
21.02.2018 15:00:00 13,0 5,3 11 6 E 1006,6 30
21.02.2018 14:00:00 12,9 5,2 9 5 SSE 1006,8 30
21.02.2018 13:00:00 15,1 4,2 11 6 S 1006,9 30
21.02.2018 12:00:00 14,4 3,6 4 2 ESE 1007,5 21
21.02.2018 11:00:00 13,3 4,0 5 3 E 1007,1 30
21.02.2018 10:00:00 11,4 4,1 9 5 N 1006,8 30
21.02.2018 09:00:00 8,3 3,8 4 2 WNW 1006,7 30
21.02.2018 08:00:00 7,1 2,9 4 2 NNE 1006,8 30
21.02.2018 07:00:00 7,2 3,0 8 4 W 1006,7 30
21.02.2018 06:00:00 7,5 3,1 13 7 NNE 1007,1 30
21.02.2018 05:00:00 9,7 3,8 24 13 WNW 1007,6 30
21.02.2018 04:00:00 9,4 3,4 11 6 WNW 1008,4 30
21.02.2018 03:00:00 9,5 3,4 29 16 WNW 1009,3 30
21.02.2018 02:00:00 9,8 3,2 31 17 WNW 1009,4 30
21.02.2018 01:00:00 10,3 3,0 34 18 WNW 1009,0 30
21.02.2018 00:00:00 11,1 3,0 31 17 WNW 1009,0 30
20.02.2018 23:00:00 11,4 3,3 39 21 W 1009,3 30
20.02.2018 22:00:00 12,2 3,3 29 16 W 1009,4 30
20.02.2018 21:00:00 13,1 3,6 31 17 WNW 1009,1 30
20.02.2018 20:00:00 14,4 3,9 37 20 W 1009,4 30
20.02.2018 19:00:00 15,8 4,1 22 12 W 1008,5 30
20.02.2018 18:00:00 17,5 4,3 29 16 W 1008,3 30
20.02.2018 17:00:00 16,9 4,5 31 17 W 1008,2 30
20.02.2018 16:00:00 17,2 5,0 35 19 W 1008,7 30
20.02.2018 15:00:00 17,0 5,2 26 14 W 1009,5 30
20.02.2018 14:00:00 16,8 6,0 35 19 WNW 1009,8 30
20.02.2018 13:00:00 15,9 6,2 26 14 W 1010,8 30
20.02.2018 12:00:00 14,4 6,7 34 18 WNW 1011,1 30
20.02.2018 11:00:00 14,0 7,3 11 6 WNW 1011,8 30
20.02.2018 10:00:00 11,0 7,6 4 2 N 1012,3 25
20.02.2018 09:00:00 9,1 7,3 0 0 N 1012,3 15
20.02.2018 08:00:00 8,0 6,9 2 1 W 1012,1 10
20.02.2018 07:00:00 7,5 6,3 2 1 NNW 1012,0 20
20.02.2018 06:00:00 7,9 6,8 8 4 N 1012,7 6
20.02.2018 05:00:00 8,3 7,0 4 2 NNW 1012,6 7
20.02.2018 04:00:00 9,6 7,3 2 1 N 1012,9 11
20.02.2018 03:00:00 10,2 7,9 8 4 N 1013,4 10
20.02.2018 02:00:00 10,2 8,1 8 4 N 1013,8 11
20.02.2018 01:00:00 9,8 7,7 5 3 NE 1014,3 12
20.02.2018 00:00:00 10,3 7,7 4 2 NNE 1014,8 12
19.02.2018 23:00:00 10,2 8,0 2 1 NE 1015,4 11
19.02.2018 22:00:00 10,6 7,8 0 0 N 1015,7 18
19.02.2018 21:00:00 10,3 7,2 2 1 NNW 1015,9 28
19.02.2018 20:00:00 10,0 7,0 0 0 N 1015,8 30
19.02.2018 19:00:00 10,5 7,0 4 2 SW 1016,0 26
19.02.2018 18:00:00 12,3 7,5 8 4 S 1015,9 30
19.02.2018 17:00:00 13,4 7,5 9 5 S 1015,8 30
19.02.2018 16:00:00 14,2 7,1 13 7 SSE 1015,7 27
19.02.2018 15:00:00 14,3 5,8 13 7 SE 1016,0 30
19.02.2018 14:00:00 15,2 6,0 13 7 SE 1016,5 30
19.02.2018 13:00:00 14,8 6,6 16 9 SSE 1017,2 30
19.02.2018 12:00:00 14,4 6,0 13 7 SE 1017,8 30
19.02.2018 11:00:00 13,4 5,2 2 1 W 1017,9 30
19.02.2018 10:00:00 12,1 5,5 4 2 ENE 1018,1 30
19.02.2018 09:00:00 8,6 5,4 4 2 NE 1018,0 30
19.02.2018 08:00:00 4,7 3,2 8 4 ENE 1017,9 27
19.02.2018 07:00:00 5,7 3,8 8 4 WNW 1017,3 30
19.02.2018 06:00:00 7,1 4,2 2 1 NE 1017,2 30
19.02.2018 05:00:00 8,4 4,5 8 4 N 1016,9 30
19.02.2018 04:00:00 8,6 4,0 4 2 NNE 1016,9 30
19.02.2018 03:00:00 10,0 5,1 11 6 WNW 1017,4 30
19.02.2018 02:00:00 10,6 5,3 13 7 WNW 1018,0 30
19.02.2018 01:00:00 11,2 5,4 24 13 W 1018,3 30
19.02.2018 00:00:00 10,5 5,0 15 8 W 1018,6 30
18.02.2018 23:00:00 11,0 3,6 5 3 NNW 1018,8 30
18.02.2018 22:00:00 12,5 4,9 18 10 WSW 1018,8 30
18.02.2018 21:00:00 11,9 3,8 13 7 WSW 1019,4 30
18.02.2018 20:00:00 11,7 2,1 2 1 W 1019,6 30
18.02.2018 19:00:00 12,6 2,1 16 9 WSW 1019,4 30
18.02.2018 18:00:00 13,8 2,3 18 10 W 1019,0 30
18.02.2018 17:00:00 15,5 1,8 22 12 W 1018,8 30
18.02.2018 16:00:00 17,1 2,5 22 12 W 1019,1 30
18.02.2018 15:00:00 16,7 2,2 26 14 W 1019,4 30
18.02.2018 14:00:00 16,2 2,3 22 12 W 1020,4 30
18.02.2018 13:00:00 15,3 2,2 18 10 W 1021,3 30
18.02.2018 12:00:00 13,9 2,4 18 10 W 1022,1 30
18.02.2018 11:00:00 11,9 2,9 4 2 SE 1022,7 30
18.02.2018 10:00:00 9,7 2,5 4 2 ESE 1023,0 30
18.02.2018 09:00:00 5,9 2,6 2 1 ENE 1023,1 30
18.02.2018 08:00:00 2,4 0,7 0 0 N 1022,8 30
18.02.2018 07:00:00 3,4 0,9 0 0 N 1022,6 30
18.02.2018 06:00:00 4,5 1,3 4 2 E 1022,4 30
18.02.2018 05:00:00 8,0 1,9 28 15 W 1022,4 30
18.02.2018 04:00:00 8,5 1,9 29 16 W 1022,5 30
18.02.2018 03:00:00 8,8 2,3 22 12 W 1023,0 30
18.02.2018 02:00:00 9,4 2,1 16 9 W 1023,4 30
18.02.2018 01:00:00 10,2 2,2 22 12 W 1023,3 30

tt = Température de l'air
td = dewpoint
ff = Vitesse du vent
dd = Direction du vent
ppp = reduced air pressure
vv = visibility

stations d'obs. à proximité